Weather Roundup
Issued by NWS Springfield, MO

Home | Current Version | Previous Version | Text Only | Print | Product List | Glossary On
Versions: 1 2 3 4 5 6 7 8 9 10 11 12 13 14 15 16 17 18 19 20 21 22 23 24 25 26 27 28 29 30 31 32 33 34 35 36 37 38 39 40 41 42 43 44 45 46 47 48 49 50
000
NZUS99 KSGF 051807
HRRSGF

HOURLY WEATHER
NATIONAL WEATHER SERVICE SPRINGFIELD MO
100 PM CDT SUN JUL 05 2015

......SGF CWA......

CITY           SKY/WX    TMP DP  RH WIND       PRES   REMARKS
SPRINGFIELD    MOSUNNY   83  71  67 S6        30.04S
6HR MIN TEMP:  71; 6HR MAX TEMP:  83;

JOPLIN         PTSUNNY   85  74  69 S9        30.01F HX  92
6HR MIN TEMP:  72; 6HR MAX TEMP:  87;

WEST PLAINS    PTSUNNY   81  69  67 VRB5      30.10S
6HR MIN TEMP:  70; 6HR MAX TEMP:  80;

ROLLA          MOSUNNY   81  70  69 SE6       30.06S
6HR MIN TEMP:  67; 6HR MAX TEMP:  81;

OSAGE BEACH    MOSUNNY   84  72  65 SE6       30.04S
BRANSON        PTSUNNY   82  73  74 SE5       30.07F

......SURROUNDING SGF CWA......

CITY           SKY/WX    TMP DP  RH WIND       PRES   REMARKS
CHANUTE        MOSUNNY   88  74  63 S9        29.97F HX  96
PARSONS        MOSUNNY   88  75  65 S9        29.98F HX  97
COFFEYVILLE    PTSUNNY   89  74  60 S10G20    29.96F HX  98
EMPORIA        MOSUNNY   81  72  74 SE13      29.94F
GROVE OK       MOSUNNY   90  73  58 S6        30.01F HX  98
ROGERS AR      PTSUNNY   86  73  65 W7        30.05F HX  93
SILOAM SPRINGS MOSUNNY   84  72  65 S9        30.04
HARRISON AR    CLOUDY    83  73  72 E7        30.06F
NEAR YELLVILLE   N/A     82  72  69 E6        30.04S

......KANSAS AND MISSOURI......

CITY           SKY/WX    TMP DP  RH WIND       PRES   REMARKS
KANSAS CTY INT CLOUDY    84  73  69 S14       29.96F HX  90
DOWNTOWN KC    CLOUDY    88  74  63 S10       29.95F HX  96
COLUMBIA       MOSUNNY   83  71  67 SE9       30.04S
SEDALIA        PTSUNNY   84  73  69 SE8       30.02F HX  90
ST JOSEPH      CLOUDY    85  72  65 S12       29.95F HX  91
ST LOUIS       PTSUNNY   85  66  53 SW5       30.07S
SPIRIT OF STL  MOSUNNY   83  68  60 S6        30.04F
KIRKSVILLE     PTSUNNY   84  68  58 S9        30.02F
WICHITA        MOSUNNY   93  70  46 S14G22    29.91F HX  99
TOPEKA         PTSUNNY   88  73  61 S12       29.94S THUNDER HX  95
OLATHE         PTSUNNY   82  73  74 S13       29.97F

......TENNESSEE......

CITY           SKY/WX    TMP DP  RH WIND       PRES   REMARKS
MEMPHIS        PTSUNNY   80  70  71 S10       30.10S
NASHVILLE      PTSUNNY   81  71  71 CALM      30.10R

......ARKANSAS.......

CITY           SKY/WX    TMP DP  RH WIND       PRES   REMARKS
FAYETTEVILLE   PTSUNNY   84  74  71 S12       30.04F HX  91
FT SMITH       PTSUNNY   88  73  61 S5        30.01F HX  95
LITTLE ROCK    CLOUDY    82  72  71 S8        30.07S

......OKLAHOMA.......

CITY           SKY/WX    TMP DP  RH WIND       PRES   REMARKS
TULSA          MOSUNNY   91  75  59 S10G18    29.97F HX 101
PONCA CITY     SUNNY     93  72  50 S8G20     29.93F HX 101
MCALESTER      MOSUNNY   89  75  63 SW13      30.02F HX  99
OKLAHOMA CITY  MOSUNNY   90  73  57 S13       29.98F HX  98

......IOWA............

CITY           SKY/WX    TMP DP  RH WIND       PRES   REMARKS
DES MOINES     CLOUDY    82  69  64 S10       29.95F
QUAD CITIES    MOSUNNY   81  66  60 S9G17     30.03F

......ILLINOIS........

CITY           SKY/WX    TMP DP  RH WIND       PRES   REMARKS
QUINCY         MOSUNNY   83  70  64 SE7       30.03F
CHICAGO        MOSUNNY   80  60  50 S7        30.07F




USA.gov is the U.S. government's official web portal to all federal, state and local government web resources and services.